Terug naar catalogus

KUIPER-00261

ActiefCommunicatieLEO
NORAD 67158·PAYLOAD·🇺🇸 United States

Gelanceerd Dec 15, 2025 vanaf Cape Canaveral Space Force Station

Loading…

Volgende Passages (komende 24 uur)

TLE

VersSource: CelesTrak SupGP

Epoch: Sep 14, 2026, 20:32 UTC

1 67158C 25301AB  26257.85581019  .00000973  00000+0  12743-3 0  2572
2 67158  51.9017 314.1898 0000362  75.6521 196.9421 14.79919128    17

Volg KUIPER-00261 in realtime met AllMySat

Download on the App Store